{"data":{"norad_id":65997,"intl_designator":"2025-231C","name":"HULIANWANG DIGUI-89","alt_names":[],"object_type":"PAYLOAD","status":"ACTIVE","operator":null,"country":"PRC","launch_date":"2025-10-16","launch_site_code":"WSC","launch_vehicle":null,"mission":null,"orbit_class":"UNKNOWN","rcs_meters":null,"size_class":null,"mass_kg":null,"dimensions":null,"purposes":[],"wikipedia_slug":null,"has_3d_model":false,"image_url":null,"decayed_at":null,"tle_current":{"epoch":"2026-09-20T22:26:48.966144Z","epoch_age_seconds":102804,"freshness":"FRESH","line1":"1 65997U 25231C   26263.93528896 -.00000108  00000+0  34727-4 0  9994","line2":"2 65997  49.9956 192.2422 0000408  60.9051 299.1862 13.29327619 45622","mean_motion":13.29327619,"eccentricity":4.08e-5,"inclination_deg":49.9956,"raan_deg":192.2422,"arg_perigee_deg":60.9051,"mean_anomaly_deg":299.1862,"bstar":3.4727e-5,"rev_number":4562,"period_min":108.32544057749,"perigee_km":1148.9933405769,"apogee_km":1149.6075794737,"semimajor_km":7527.4374600253,"source":"CELESTRAK","updated_at":"2026-09-21T09:00:15.692849Z"}}}